• In Slovakia
  • List of Countries
  • For 7 days
  • Water Temperature
  • Satellite Maps
  • Weather Map
  • Weather Widgets
  • user-avatar
    Login

    Hourly Weather Jewłach

    Today, 18 October, Thursday

    Time Temperature Precipitation Wind Pressure Humidity
    00:00 +18°C° 0 mm 1 mps 766 mmHg 89%
    01:00 +18°C° 0 mm 1 mps 765 mmHg 90%
    02:00 +18°C° 0 mm 1 mps 765 mmHg 90%
    03:00 +18°C° 0 mm 1 mps 765 mmHg 90%
    04:00 +16°C° 0 mm 0 mps 765 mmHg 90%
    05:00 +16°C° 0 mm 0 mps 765 mmHg 89%
    06:00 +16°C° 0 mm 0 mps 765 mmHg 89%
    07:00 +19°C° 0 mm 1 mps 765 mmHg 84%
    08:00 +20°C° 0 mm 1 mps 765 mmHg 78%
    09:00 +22°C° 0 mm 1 mps 765 mmHg 71%
    10:00 +23°C° 0 mm 1 mps 764 mmHg 67%
    11:00 +24°C° 0 mm 2 mps 764 mmHg 62%
    12:00 +25°C° 0 mm 2 mps 764 mmHg 57%
    13:00 +25°C° 0 mm 2 mps 763 mmHg 55%
    14:00 +25°C° 0 mm 2 mps 763 mmHg 52%
    15:00 +26°C° 0 mm 2 mps 763 mmHg 50%
    16:00 +25°C° 0 mm 2 mps 763 mmHg 55%
    17:00 +24°C° 0 mm 2 mps 763 mmHg 59%
    18:00 +21°C° 0 mm 2 mps 764 mmHg 64%
    19:00 +21°C° 0 mm 2 mps 764 mmHg 65%
    20:00 +20°C° 0 mm 3 mps 764 mmHg 67%
    21:00 +20°C° 0 mm 3 mps 765 mmHg 69%
    22:00 +19°C° 0 mm 3 mps 765 mmHg 72%
    23:00 +19°C° 0 mm 3 mps 765 mmHg 76%

    Tomorrow, 19 October, Friday

    Time Temperature Precipitation Wind Pressure Humidity
    00:00 +18°C° 0 mm 3 mps 765 mmHg 80%
    01:00 +18°C° 0 mm 2 mps 765 mmHg 82%
    02:00 +18°C° 0 mm 2 mps 765 mmHg 84%
    03:00 +18°C° 0 mm 1 mps 765 mmHg 86%
    04:00 +18°C° 0 mm 1 mps 765 mmHg 86%
    05:00 +18°C° 0 mm 1 mps 765 mmHg 86%
    06:00 +18°C° 0 mm 1 mps 765 mmHg 86%
    07:00 +19°C° 0 mm 1 mps 765 mmHg 82%
    08:00 +20°C° 0 mm 1 mps 765 mmHg 78%
    09:00 +21°C° 0 mm 1 mps 765 mmHg 74%
    10:00 +21°C° 0 mm 2 mps 764 mmHg 69%
    11:00 +23°C° 0 mm 2 mps 764 mmHg 64%
    12:00 +24°C° 0 mm 2 mps 764 mmHg 60%
    13:00 +24°C° 0 mm 2 mps 763 mmHg 57%
    14:00 +25°C° 0 mm 2 mps 763 mmHg 55%
    15:00 +25°C° 0 mm 2 mps 763 mmHg 52%
    16:00 +24°C° 0 mm 2 mps 763 mmHg 56%
    17:00 +23°C° 0 mm 2 mps 763 mmHg 60%
    18:00 +21°C° 0 mm 2 mps 763 mmHg 64%
    19:00 +21°C° 0 mm 2 mps 763 mmHg 67%
    20:00 +20°C° 0 mm 2 mps 764 mmHg 70%
    21:00 +19°C° 0 mm 2 mps 764 mmHg 72%
    22:00 +19°C° 0 mm 2 mps 764 mmHg 75%
    23:00 +18°C° 0 mm 2 mps 763 mmHg 78%

    Day after tomorrow, 20 October, Saturday

    Time Temperature Precipitation Wind Pressure Humidity
    00:00 +18°C° 0 mm 2 mps 763 mmHg 81%
    01:00 +18°C° 0 mm 1 mps 763 mmHg 83%
    02:00 +18°C° 0 mm 1 mps 763 mmHg 84%
    03:00 +18°C° 0 mm 1 mps 763 mmHg 85%
    04:00 +18°C° 0 mm 1 mps 763 mmHg 85%
    05:00 +18°C° 0 mm 1 mps 763 mmHg 85%
    06:00 +18°C° 0 mm 1 mps 762 mmHg 84%
    07:00 +19°C° 0 mm 1 mps 762 mmHg 80%
    08:00 +20°C° 0 mm 1 mps 762 mmHg 75%
    09:00 +21°C° 0 mm 1 mps 762 mmHg 70%
    10:00 +22°C° 0 mm 1 mps 762 mmHg 63%
    11:00 +24°C° 0 mm 2 mps 761 mmHg 57%
    12:00 +25°C° 0 mm 2 mps 761 mmHg 50%
    13:00 +25°C° 0 mm 1 mps 760 mmHg 48%
    14:00 +26°C° 0 mm 1 mps 760 mmHg 45%
    15:00 +26°C° 0 mm 1 mps 760 mmHg 43%
    16:00 +25°C° 0 mm 1 mps 760 mmHg 47%
    17:00 +24°C° 0 mm 1 mps 760 mmHg 51%
    18:00 +23°C° 0 mm 1 mps 760 mmHg 55%
    19:00 +22°C° 0 mm 1 mps 760 mmHg 57%
    20:00 +22°C° 0 mm 1 mps 761 mmHg 58%
    21:00 +21°C° 0 mm 1 mps 761 mmHg 60%
    22:00 +21°C° 0 mm 1 mps 761 mmHg 62%
    23:00 +21°C° 0 mm 1 mps 760 mmHg 64%

    21 October, Sunday

    Time Temperature Precipitation Wind Pressure Humidity
    00:00 +20°C° 0 mm 1 mps 760 mmHg 65%
    01:00 +20°C° 0 mm 1 mps 760 mmHg 66%
    02:00 +19°C° 0 mm 1 mps 760 mmHg 67%
    03:00 +17°C° 0 mm 0 mps 760 mmHg 67%
    04:00 +19°C° 0 mm 1 mps 760 mmHg 67%
    05:00 +19°C° 0 mm 1 mps 760 mmHg 66%
    06:00 +19°C° 0 mm 1 mps 760 mmHg 65%
    07:00 +20°C° 0 mm 1 mps 760 mmHg 60%
    08:00 +22°C° 0 mm 1 mps 760 mmHg 54%
    09:00 +23°C° 0 mm 1 mps 760 mmHg 49%
    10:00 +25°C° 0 mm 1 mps 759 mmHg 44%
    11:00 +26°C° 0 mm 1 mps 759 mmHg 39%
    12:00 +27°C° 0 mm 1 mps 758 mmHg 34%
    13:00 +27°C° 0 mm 1 mps 758 mmHg 33%
    14:00 +27°C° 0 mm 1 mps 757 mmHg 32%
    15:00 +28°C° 0 mm 1 mps 757 mmHg 31%
    16:00 +26°C° 0 mm 1 mps 757 mmHg 34%
    17:00 +25°C° 0 mm 1 mps 757 mmHg 38%
    18:00 +22°C° 0 mm 0 mps 758 mmHg 41%
    19:00 +24°C° 0 mm 1 mps 758 mmHg 42%
    20:00 +23°C° 0 mm 1 mps 758 mmHg 43%
    21:00 +23°C° 0 mm 1 mps 758 mmHg 44%
    22:00 +22°C° 0 mm 1 mps 758 mmHg 45%
    23:00 +22°C° 0 mm 1 mps 758 mmHg 45%

    22 October, Monday

    Time Temperature Precipitation Wind Pressure Humidity
    00:00 +22°C° 0 mm 1 mps 758 mmHg 45%
    01:00 +21°C° 0 mm 1 mps 758 mmHg 45%
    02:00 +21°C° 0 mm 1 mps 757 mmHg 45%
    03:00 +21°C° 0 mm 1 mps 757 mmHg 45%
    04:00 +21°C° 0 mm 1 mps 758 mmHg 45%
    05:00 +20°C° 0 mm 1 mps 758 mmHg 44%
    06:00 +19°C° 0 mm 2 mps 758 mmHg 44%
    07:00 +21°C° 0 mm 2 mps 758 mmHg 40%
    08:00 +23°C° 0 mm 2 mps 758 mmHg 36%
    09:00 +25°C° 0 mm 2 mps 758 mmHg 32%
    10:00 +26°C° 0 mm 3 mps 758 mmHg 30%
    11:00 +27°C° 0 mm 3 mps 758 mmHg 28%
    12:00 +28°C° 0 mm 3 mps 757 mmHg 26%
    13:00 +28°C° 0 mm 3 mps 757 mmHg 26%
    14:00 +29°C° 0 mm 3 mps 757 mmHg 26%
    15:00 +29°C° 0 mm 3 mps 756 mmHg 26%
    16:00 +28°C° 0 mm 3 mps 757 mmHg 28%
    17:00 +26°C° 0 mm 2 mps 757 mmHg 31%
    18:00 +25°C° 0 mm 2 mps 758 mmHg 33%
    19:00 +24°C° 0 mm 2 mps 758 mmHg 34%
    20:00 +24°C° 0 mm 2 mps 759 mmHg 35%
    21:00 +23°C° 0 mm 2 mps 759 mmHg 35%
    22:00 +23°C° 0 mm 2 mps 759 mmHg 36%
    23:00 +23°C° 0 mm 2 mps 759 mmHg 36%

    23 October, Tuesday

    Time Temperature Precipitation Wind Pressure Humidity
    00:00 +21°C° 0 mm 2 mps 759 mmHg 37%
    01:00 +21°C° 0 mm 2 mps 759 mmHg 38%
    02:00 +21°C° 0 mm 3 mps 759 mmHg 39%
    03:00 +20°C° 0 mm 3 mps 759 mmHg 39%
    04:00 +20°C° 0 mm 3 mps 760 mmHg 40%
    05:00 +20°C° 0 mm 3 mps 760 mmHg 41%
    06:00 +20°C° 0 mm 3 mps 760 mmHg 42%
    07:00 +21°C° 0 mm 3 mps 760 mmHg 38%
    08:00 +24°C° 0 mm 3 mps 760 mmHg 34%
    09:00 +26°C° 0 mm 3 mps 760 mmHg 31%
    10:00 +27°C° 0 mm 3 mps 760 mmHg 28%
    11:00 +28°C° 0 mm 3 mps 759 mmHg 26%
    12:00 +29°C° 0 mm 3 mps 759 mmHg 24%
    13:00 +30°C° 0 mm 3 mps 759 mmHg 24%
    14:00 +30°C° 0 mm 3 mps 758 mmHg 24%
    15:00 +30°C° 0 mm 3 mps 758 mmHg 23%
    16:00 +28°C° 0 mm 3 mps 758 mmHg 26%
    17:00 +27°C° 0 mm 2 mps 758 mmHg 28%
    18:00 +25°C° 0 mm 2 mps 759 mmHg 31%
    19:00 +25°C° 0 mm 2 mps 759 mmHg 32%
    20:00 +24°C° 0 mm 2 mps 759 mmHg 33%
    21:00 +24°C° 0 mm 2 mps 759 mmHg 34%
    22:00 +24°C° 0 mm 2 mps 759 mmHg 34%
    23:00 +24°C° 0 mm 2 mps 758 mmHg 35%
    Show more